GW1885 Weather Reports


Display with metric or nautical units.
time (UTC)temp
F
wind
direction
speed
MPH
gust
MPH
rain 1hr
in
rain 24hr
in
rain mn
in
humidity
%
barometer
mb
20260509111525 65 355 1.0 9.0 0.00 0.00 0.00 36 1021.5
20260509111003 65 336 2.0 9.0 0.00 0.00 0.00 46 1021.4
20260509110504 64 330 2.0 8.0 0.00 0.00 0.00 43 1021.5
20260509110024 64 305 2.0 10.0 0.00 0.00 0.00 45 1021.6
20260509105504 63 281 3.0 10.0 0.00 0.00 0.00 44 1021.5
20260509105003 63 311 2.0 8.0 0.00 0.00 0.00 40 1021.5
20260509104503 65 17 1.0 4.0 0.00 0.00 0.00 45 1021.6
20260509104004 65 16 1.0 4.0 0.00 0.00 0.00 42 1021.5
20260509103503 64 20 1.0 6.0 0.00 0.00 0.00 45 1021.5
20260509103004 65 33 1.0 6.0 0.00 0.00 0.00 42 1021.6
20260509102504 64 35 1.0 6.0 0.00 0.00 0.00 50 1021.6
20260509102003 63 19 1.0 4.0 0.00 0.00 0.00 41 1021.6
20260509101503 63 354 1.0 6.0 0.00 0.00 0.00 47 1021.6
20260509101004 63 343 1.0 6.0 0.00 0.00 0.00 45 1021.7
20260509100524 64 318 1.0 6.0 0.00 0.00 0.00 40 1021.8
20260509100005 64 340 1.0 6.0 0.00 0.00 0.00 45 1021.9
20260509095503 64 20 1.0 6.0 0.00 0.00 0.00 42 1021.6
20260509095003 63 18 2.0 7.0 0.00 0.00 0.00 50 1021.8
20260509094503 63 349 2.0 7.0 0.00 0.00 0.00 43 1021.7
20260509094003 62 314 2.0 7.0 0.00 0.00 0.00 43 1021.7
20260509093503 62 319 2.0 7.0 0.00 0.00 0.00 41 1021.7
20260509093003 63 354 2.0 6.0 0.00 0.00 0.00 43 1021.8
20260509092503 62 349 2.0 6.0 0.00 0.00 0.00 43 1021.7
20260509092024 63 6 1.0 8.0 0.00 0.00 0.00 47 1021.7
20260509091503 62 14 1.0 8.0 0.00 0.00 0.00 46 1021.9
20260509091003 62 11 1.0 7.0 0.00 0.00 0.00 50 1021.9
20260509090503 62 20 1.0 9.0 0.00 0.00 0.00 44 1021.9
20260509090003 62 3 1.0 9.0 0.00 0.00 0.00 52 1021.9
20260509085503 61 335 1.0 3.0 0.00 0.00 0.00 47 1021.7
20260509085005 61 339 1.0 7.0 0.00 0.00 0.00 46 1021.8
20260509084505 61 343 1.0 7.0 0.00 0.00 0.00 50 1022.0
20260509084004 61 356 2.0 7.0 0.00 0.00 0.00 50 1021.9
20260509083526 60 14 2.0 7.0 0.00 0.00 0.00 49 1021.8
20260509083004 62 22 1.0 6.0 0.00 0.00 0.00 51 1021.9
20260509082505 62 16 1.0 6.0 0.00 0.00 0.00 47 1021.9
20260509082005 61 6 1.0 6.0 0.00 0.00 0.00 48 1021.8
20260509081506 61 345 1.0 4.0 0.00 0.00 0.00 49 1021.8
20260509081005 60 350 1.0 4.0 0.00 0.00 0.00 49 1021.9
20260509080526 60 5 1.0 3.0 0.00 0.00 0.00 50 1022.0
20260509080005 59 321 1.0 4.0 0.00 0.00 0.00 52 1021.9
20260509075504 58 293 1.0 4.0 0.00 0.00 0.00 55 1021.9
20260509075005 58 295 1.0 4.0 0.00 0.00 0.00 61 1021.7
20260509074504 58 312 1.0 7.0 0.00 0.00 0.00 56 1021.9
20260509074006 57 338 1.0 7.0 0.00 0.00 0.00 59 1022.1
20260509073505 57 2 1.0 3.0 0.00 0.00 0.00 60 1022.0
20260509073027 56 332 1.0 4.0 0.00 0.00 0.00 61 1022.0
20260509072504 55 323 1.0 4.0 0.00 0.00 0.00 66 1022.0
20260509072026 55 3 1.0 4.0 0.00 0.00 0.00 64 1021.9
20260509071525 54 2 1.0 4.0 0.00 0.00 0.00 69 1022.2
20260509071004 54 357 1.0 3.0 0.00 0.00 0.00 66 1022.1
20260509070505 54 340 1.0 4.0 0.00 0.00 0.00 68 1022.1
20260509070006 53 347 1.0 4.0 0.00 0.00 0.00 73 1022.1
20260509065505 53 3 1.0 3.0 0.00 0.00 0.00 70 1022.0
20260509065004 52 7 1.0 3.0 0.00 0.00 0.00 70 1022.1
20260509064504 51 9 0.0 2.0 0.00 0.00 0.00 74 1022.0
20260509064005 51 360 1.0 2.0 0.00 0.00 0.00 77 1022.1
20260509063504 51 352 1.0 2.0 0.00 0.00 0.00 74 1022.1
20260509063004 51 348 0.0 2.0 0.00 0.00 0.00 77 1022.1
20260509062504 50 349 1.0 3.0 0.00 0.00 0.00 80 1022.0
20260509062004 49 355 1.0 3.0 0.00 0.00 0.00 78 1022.0
20260509061505 49 355 1.0 3.0 0.00 0.00 0.00 81 1022.1
20260509061004 48 348 1.0 3.0 0.00 0.00 0.00 82 1022.1
20260509060504 48 326 1.0 4.0 0.00 0.00 0.00 83 1022.0
20260509060005 48 317 1.0 4.0 0.00 0.00 0.00 85 1021.8
20260509055526 47 333 1.0 3.0 0.00 0.00 0.00 88 1021.9
20260509055005 46 333 1.0 3.0 0.00 0.00 0.00 94 1021.9
20260509054505 46 333 0.0 2.0 0.00 0.00 0.00 96 1021.9
20260509054005 45 333 0.0 2.0 0.00 0.00 0.00 97 1022.0
20260509053525 45 334 0.0 1.0 0.00 0.00 0.00 99 1022.0
20260509053004 44 333 1.0 2.0 0.00 0.00 0.00 99 1021.9
20260509052504 43 333 1.0 2.0 0.00 0.00 0.00 99 1021.9
20260509052004 43 334 1.0 2.0 0.00 0.00 0.00 99 1021.8
20260509051504 42 334 0.0 1.0 0.00 0.00 0.00 99 1022.0
20260509051005 42 334 0.0 1.0 0.00 0.00 0.00 99 1021.8
20260509050525 41 333 0.0 1.0 0.00 0.00 0.00 99 1021.7
20260509050025 40 333 1.0 2.0 0.00 0.00 0.00 99 1021.8
20260509045505 39 333 1.0 2.0 0.00 0.00 0.00 99 1021.8
20260509045025 39 333 0.0 1.0 0.00 0.00 0.00 99 1021.8
20260509044505 38 333 0.0 1.0 0.00 0.00 0.00 99 1021.8
20260509044004 37 0 0.0 0.0 0.00 0.00 0.00 99 1021.6
20260509043505 36 0 0.0 0.0 0.00 0.00 0.00 99 1021.6
20260509043005 36 0 0.0 0.0 0.00 0.00 0.00 99 1021.9
20260509042505 36 0 0.0 0.0 0.00 0.00 0.00 99 1021.7
20260509042005 36 0 0.0 0.0 0.00 0.00 0.00 99 1021.6
20260509041504 35 332 0.0 1.0 0.00 0.00 0.00 99 1021.7
20260509041025 35 332 0.0 1.0 0.00 0.00 0.00 99 1021.7
20260509040525 35 332 0.0 1.0 0.00 0.00 0.00 99 1022.0
20260509040025 34 0 0.0 0.0 0.00 0.00 0.00 99 1021.8
20260509035525 34 0 0.0 0.0 0.00 0.00 0.00 99 1021.7
20260509035004 34 0 0.0 0.0 0.00 0.00 0.00 99 1021.7
20260509034505 34 0 0.0 0.0 0.00 0.00 0.00 99 1021.6
20260509034005 34 0 0.0 0.0 0.00 0.00 0.00 99 1021.8
20260509033504 34 0 0.0 0.0 0.00 0.00 0.00 99 1021.9
20260509033004 34 0 0.0 0.0 0.00 0.00 0.00 98 1021.7
20260509032525 34 0 0.0 0.0 0.00 0.00 0.00 98 1021.7
20260509032004 35 0 0.0 0.0 0.00 0.00 0.00 98 1021.8
20260509031504 35 0 0.0 0.0 0.00 0.00 0.00 98 1021.9
20260509031004 35 0 0.0 0.0 0.00 0.00 0.00 99 1021.7
20260509030504 35 0 0.0 0.0 0.00 0.00 0.00 99 1021.7
20260509030005 35 0 0.0 0.0 0.00 0.00 0.00 98 1021.8
20260509025525 35 0 0.0 0.0 0.00 0.00 0.00 98 1021.9
20260509025005 35 0 0.0 0.0 0.00 0.00 0.00 98 1021.9
20260509024525 35 0 0.0 0.0 0.00 0.00 0.00 98 1021.8
20260509024004 35 0 0.0 0.0 0.00 0.00 0.00 98 1021.8
20260509023504 35 0 0.0 0.0 0.00 0.00 0.00 98 1021.8
20260509023005 35 0 0.0 0.0 0.00 0.00 0.00 98 1021.9
20260509022504 35 0 0.0 0.0 0.00 0.00 0.00 98 1021.8
20260509022005 36 0 0.0 0.0 0.00 0.00 0.00 98 1022.0
20260509021504 36 0 0.0 0.0 0.00 0.00 0.00 98 1021.7
20260509021004 36 0 0.0 0.0 0.00 0.00 0.00 98 1021.9
20260509020504 36 0 0.0 0.0 0.00 0.00 0.00 98 1021.8
20260509020005 36 0 0.0 0.0 0.00 0.00 0.00 98 1021.8
20260509015525 36 0 0.0 0.0 0.00 0.00 0.00 98 1022.0
20260509015004 36 0 0.0 0.0 0.00 0.00 0.00 98 1021.9
20260509014505 36 0 0.0 0.0 0.00 0.00 0.00 98 1021.9
20260509014004 36 0 0.0 0.0 0.00 0.00 0.00 98 1021.8
20260509013504 36 0 0.0 0.0 0.00 0.00 0.00 98 1021.7
20260509013005 36 0 0.0 0.0 0.00 0.00 0.00 98 1021.9
20260509012504 36 0 0.0 0.0 0.00 0.00 0.00 98 1021.8
20260509012004 37 0 0.0 0.0 0.00 0.00 0.00 97 1021.7
20260509011504 37 0 0.0 0.0 0.00 0.00 0.00 97 1021.7
20260509011005 37 0 0.0 0.0 0.00 0.00 0.00 97 1021.8
20260509010505 38 0 0.0 0.0 0.00 0.00 0.00 97 1021.7
20260509010025 38 0 0.0 0.0 0.00 0.00 0.00 97 1021.9
20260509005504 38 332 0.0 1.0 0.00 0.00 0.00 97 1021.8
20260509005004 38 332 0.0 1.0 0.00 0.00 0.00 97 1021.8
20260509004504 38 332 0.0 1.0 0.00 0.00 0.00 97 1021.6
20260509004004 39 332 0.0 1.0 0.00 0.00 0.00 98 1021.7
20260509003504 39 332 0.0 1.0 0.00 0.00 0.00 98 1021.8
20260509003004 39 332 0.0 1.0 0.00 0.00 0.00 98 1021.8
20260509002505 39 332 0.0 1.0 0.00 0.00 0.00 98 1021.8
20260509002005 39 332 1.0 2.0 0.00 0.00 0.00 98 1021.9
20260509001525 39 333 1.0 3.0 0.00 0.00 0.00 98 1021.7
20260509001025 39 334 1.0 3.0 0.00 0.00 0.00 98 1021.8
20260509000504 39 341 1.0 2.0 0.00 0.00 0.00 98 1021.7
20260509000025 39 345 1.0 2.0 0.00 0.00 0.00 98 1021.8
20260508235504 38 346 0.0 1.0 0.00 0.00 0.00 98 1021.8
20260508235004 38 0 0.0 0.0 0.00 0.00 0.00 98 1022.0
20260508234504 38 0 0.0 0.0 0.00 0.00 0.00 98 1022.0
20260508234004 38 0 0.0 0.0 0.00 0.00 0.00 97 1022.0
20260508233504 37 0 0.0 0.0 0.00 0.00 0.00 97 1022.0
20260508233004 37 0 0.0 0.0 0.00 0.00 0.00 97 1022.0
20260508232504 37 0 0.0 0.0 0.00 0.00 0.00 97 1022.0
20260508232004 37 0 0.0 0.0 0.00 0.00 0.00 97 1022.1
20260508231504 36 0 0.0 0.0 0.00 0.00 0.00 97 1022.1
20260508231005 36 0 0.0 0.0 0.00 0.00 0.00 97 1022.0
20260508230504 36 0 0.0 0.0 0.00 0.00 0.00 96 1022.1
20260508230005 36 0 0.0 0.0 0.00 0.00 0.00 96 1021.9
20260508225505 37 346 0.0 1.0 0.00 0.00 0.00 96 1022.0
20260508225026 37 346 0.0 1.0 0.00 0.00 0.00 97 1021.9
20260508224504 37 346 0.0 1.0 0.00 0.00 0.00 97 1022.1
20260508224026 37 0 0.0 0.0 0.00 0.00 0.00 96 1022.2
20260508223504 37 0 0.0 0.0 0.00 0.00 0.00 96 1022.0
20260508223004 37 0 0.0 0.0 0.00 0.00 0.00 96 1022.1
20260508222505 37 0 0.0 0.0 0.00 0.00 0.00 96 1022.0
20260508222005 37 0 0.0 0.0 0.00 0.00 0.00 95 1022.1
20260508221525 37 0 0.0 0.0 0.00 0.00 0.00 95 1022.0
20260508221004 37 0 0.0 0.0 0.00 0.00 0.00 94 1021.9
20260508220504 37 0 0.0 0.0 0.00 0.00 0.00 94 1022.0
20260508220005 37 346 0.0 1.0 0.00 0.00 0.00 94 1022.1
20260508215504 38 346 0.0 1.0 0.00 0.00 0.00 94 1022.1
20260508215004 38 0 0.0 0.0 0.00 0.00 0.00 93 1022.1
20260508214505 38 0 0.0 0.0 0.00 0.00 0.00 93 1021.9
20260508214004 39 346 0.0 1.0 0.00 0.00 0.00 93 1022.0
20260508213505 39 346 0.0 1.0 0.00 0.00 0.00 94 1022.0
20260508213004 39 346 0.0 1.0 0.00 0.00 0.00 94 1022.0
20260508212504 39 346 0.0 1.0 0.00 0.00 0.00 94 1022.0
20260508212005 39 0 0.0 0.0 0.00 0.00 0.00 93 1021.9
20260508211505 39 0 0.0 0.0 0.00 0.00 0.00 93 1021.9
20260508211004 39 0 0.0 0.0 0.00 0.00 0.00 93 1021.8
20260508210505 39 0 0.0 0.0 0.00 0.00 0.00 92 1021.9
20260508210004 39 0 0.0 0.0 0.00 0.00 0.00 92 1021.8
20260508205525 39 0 0.0 0.0 0.00 0.00 0.00 92 1021.8
20260508205026 39 0 0.0 0.0 0.00 0.00 0.00 91 1021.9
20260508204505 39 0 0.0 0.0 0.00 0.00 0.00 91 1021.8
20260508204005 40 346 0.0 1.0 0.00 0.00 0.00 91 1021.6
20260508203504 40 346 0.0 1.0 0.00 0.00 0.00 90 1021.8
20260508203005 40 0 0.0 0.0 0.00 0.00 0.00 89 1021.8
20260508202504 40 346 0.0 1.0 0.00 0.00 0.00 89 1021.8
20260508202004 41 346 0.0 2.0 0.00 0.00 0.00 87 1021.7
20260508201505 41 348 0.0 2.0 0.00 0.00 0.00 87 1021.8
20260508201004 41 351 0.0 2.0 0.00 0.00 0.00 86 1021.7
20260508200504 41 348 0.0 2.0 0.00 0.00 0.00 86 1021.7
20260508200004 41 346 0.0 2.0 0.00 0.00 0.00 85 1021.5
20260508195504 42 345 0.0 2.0 0.00 0.00 0.00 85 1021.4
20260508195026 42 344 0.0 2.0 0.00 0.00 0.00 84 1021.6
20260508194504 42 345 0.0 3.0 0.00 0.00 0.00 84 1021.6
20260508194025 42 346 0.0 3.0 0.00 0.00 0.00 84 1021.5
20260508193505 42 347 0.0 2.0 0.00 0.00 0.00 83 1021.5
20260508193004 42 351 0.0 1.0 0.00 0.00 0.00 82 1021.3
20260508192504 43 351 0.0 1.0 0.00 0.00 0.00 82 1021.6
20260508192004 43 349 1.0 2.0 0.00 0.00 0.00 81 1021.5
20260508191505 43 346 0.0 2.0 0.00 0.00 0.00 80 1021.5
20260508191025 43 347 0.0 1.0 0.00 0.00 0.00 79 1021.6
20260508190504 44 345 0.0 2.0 0.00 0.00 0.00 78 1021.5
20260508190004 44 343 0.0 2.0 0.00 0.00 0.00 77 1021.5
20260508185503 44 343 0.0 2.0 0.00 0.00 0.00 76 1021.4
20260508185004 44 344 0.0 2.0 0.00 0.00 0.00 75 1021.4
20260508184504 45 344 0.0 1.0 0.00 0.00 0.00 74 1021.4
20260508184004 45 344 0.0 1.0 0.00 0.00 0.00 74 1021.4
20260508183505 46 344 0.0 1.0 0.00 0.00 0.00 73 1021.4
20260508183005 46 344 0.0 1.0 0.00 0.00 0.00 72 1021.4
20260508182504 46 346 0.0 3.0 0.00 0.00 0.00 71 1021.1
20260508182005 47 353 1.0 3.0 0.00 0.00 0.00 70 1021.3
20260508181526 47 360 1.0 3.0 0.00 0.00 0.00 69 1021.2
20260508181004 47 357 1.0 3.0 0.00 0.00 0.00 70 1021.2
20260508180505 47 345 0.0 3.0 0.00 0.00 0.00 68 1021.0
20260508180004 48 332 0.0 2.0 0.00 0.00 0.00 67 1021.0
20260508175504 48 321 1.0 2.0 0.00 0.00 0.00 69 1021.0
20260508175026 48 304 0.0 2.0 0.00 0.00 0.00 67 1021.0
20260508174503 49 316 1.0 6.0 0.00 0.00 0.00 66 1021.2
20260508174004 49 346 1.0 7.0 0.00 0.00 0.00 65 1020.9
20260508173503 49 345 1.0 7.0 0.00 0.00 0.00 64 1021.0
20260508173026 49 338 1.0 4.0 0.00 0.00 0.00 63 1021.0
20260508172504 49 6 1.0 6.0 0.00 0.00 0.00 65 1020.9
20260508172026 50 339 1.0 7.0 0.00 0.00 0.00 62 1021.0
20260508171503 50 333 1.0 7.0 0.00 0.00 0.00 62 1021.0
20260508171004 50 3 1.0 8.0 0.00 0.00 0.00 62 1021.0
20260508170505 50 349 2.0 8.0 0.00 0.00 0.00 59 1020.9
20260508170004 51 345 2.0 7.0 0.00 0.00 0.00 59 1021.0
20260508165504 51 1 1.0 6.0 0.00 0.00 0.00 58 1021.0
20260508165004 51 13 1.0 9.0 0.00 0.00 0.00 57 1020.9
20260508164505 52 358 1.0 9.0 0.00 0.00 0.00 56 1021.0
20260508164004 52 327 1.0 10.0 0.00 0.00 0.00 54 1020.9
20260508163524 52 346 1.0 10.0 0.00 0.00 0.00 55 1020.9
20260508163005 52 342 1.0 7.0 0.00 0.00 0.00 54 1020.7
20260508162525 52 351 1.0 7.0 0.00 0.00 0.00 54 1020.7
20260508162004 52 343 1.0 7.0 0.00 0.00 0.00 53 1020.7
20260508161503 53 341 2.0 9.0 0.00 0.00 0.00 52 1020.8
20260508161004 53 350 2.0 9.0 0.00 0.00 0.00 52 1020.9
20260508160525 53 349 2.0 8.0 0.00 0.00 0.00 52 1020.9
20260508160004 53 355 1.0 4.0 0.00 0.00 0.00 53 1020.7
20260508155524 54 336 2.0 9.0 0.00 0.00 0.00 54 1020.7
20260508155025 54 341 2.0 9.0 0.00 0.00 0.00 52 1020.8
20260508154505 54 360 2.0 7.0 0.00 0.00 0.00 52 1020.8
20260508154004 54 310 2.0 7.0 0.00 0.00 0.00 52 1020.9
20260508153503 54 340 2.0 10.0 0.00 0.00 0.00 54 1020.8
20260508153003 54 353 3.0 11.0 0.00 0.00 0.00 52 1020.7
20260508152503 55 337 2.0 11.0 0.00 0.00 0.00 54 1020.7
20260508152025 55 317 2.0 8.0 0.00 0.00 0.00 54 1020.7
20260508151503 54 331 2.0 10.0 0.00 0.00 0.00 57 1020.9
20260508151004 54 329 2.0 10.0 0.00 0.00 0.00 56 1021.0
20260508150504 54 326 1.0 6.0 0.00 0.00 0.00 53 1020.9
20260508150026 54 1 1.0 4.0 0.00 0.00 0.00 57 1021.1
20260508145504 54 28 1.0 2.0 0.00 0.00 0.00 54 1021.0
20260508145004 54 360 1.0 4.0 0.00 0.00 0.00 58 1021.0
20260508144504 54 293 1.0 8.0 0.00 0.00 0.00 53 1020.9
20260508144004 55 305 1.0 8.0 0.00 0.00 0.00 56 1020.9
20260508143503 55 358 1.0 7.0 0.00 0.00 0.00 52 1020.8
20260508143003 55 44 2.0 8.0 0.00 0.00 0.00 51 1021.0
20260508142504 54 43 2.0 8.0 0.00 0.00 0.00 51 1021.1
20260508142005 55 333 2.0 8.0 0.00 0.00 0.00 52 1021.0
20260508141505 55 349 2.0 10.0 0.00 0.00 0.00 50 1021.2
20260508141004 55 6 3.0 10.0 0.00 0.00 0.00 51 1020.9
20260508140503 56 360 2.0 7.0 0.00 0.00 0.00 52 1021.1
20260508140005 57 13 2.0 9.0 0.00 0.00 0.00 52 1020.9
20260508135504 57 19 2.0 9.0 0.00 0.00 0.00 51 1021.0
20260508135004 57 323 2.0 10.0 0.00 0.00 0.00 49 1021.0
20260508134503 57 336 2.0 10.0 0.00 0.00 0.00 54 1020.9
20260508134004 56 1 2.0 9.0 0.00 0.00 0.00 50 1021.0
20260508133503 57 1 2.0 8.0 0.00 0.00 0.00 48 1021.1
20260508133004 57 360 2.0 8.0 0.00 0.00 0.00 50 1021.2
20260508132503 57 287 2.0 8.0 0.00 0.00 0.00 49 1021.1
20260508132004 57 312 2.0 8.0 0.00 0.00 0.00 50 1021.2
20260508131524 56 351 3.0 13.0 0.00 0.00 0.00 51 1021.2
20260508131004 57 351 3.0 13.0 0.00 0.00 0.00 52 1021.2
20260508130504 57 9 2.0 10.0 0.00 0.00 0.00 51 1021.2
20260508130005 56 81 1.0 8.0 0.00 0.00 0.00 52 1021.2
20260508125504 57 12 2.0 9.0 0.00 0.00 0.00 49 1021.3
20260508125004 57 2 2.0 9.0 0.00 0.00 0.00 47 1021.3
20260508124525 57 6 2.0 8.0 0.00 0.00 0.00 49 1021.1
20260508124003 58 2 2.0 13.0 0.00 0.00 0.00 50 1021.1
20260508123505 60 3 2.0 13.0 0.00 0.00 0.00 46 1020.9
20260508123004 60 341 3.0 9.0 0.00 0.00 0.00 48 1020.9
20260508122503 61 326 2.0 9.0 0.00 0.00 0.00 44 1021.0
20260508122005 61 1 2.0 7.0 0.00 0.00 0.00 52 1020.9
20260508121526 60 358 2.0 7.0 0.00 0.00 0.00 48 1020.8
20260508121004 61 356 2.0 7.0 0.00 0.00 0.00 53 1021.0
20260508120503 60 9 2.0 7.0 0.00 0.00 0.00 46 1020.9
20260508120025 60 7 2.0 10.0 0.00 0.00 0.00 41 1021.1
20260508115504 60 33 2.0 10.0 0.00 0.00 0.00 45 1021.2
20260508115026 60 9 2.0 7.0 0.00 0.00 0.00 46 1021.0
20260508114503 60 14 2.0 13.0 0.00 0.00 0.00 44 1020.9
20260508114004 60 34 2.0 13.0 0.00 0.00 0.00 50 1021.0
20260508113503 59 86 2.0 13.0 0.00 0.00 0.00 48 1020.9
20260508113004 59 46 2.0 13.0 0.00 0.00 0.00 50 1021.0
20260508112504 59 8 2.0 7.0 0.00 0.00 0.00 48 1021.0